Weather History for KFHR - January, 2013

Change the Weather History Date:

Friday, January 4, 2013

  Actual Average Record
Temperature  
Mean Temperature 42 °F -  
Max Temperature 45 °F 43 °F 55 °F (2003)
Min Temperature 39 °F 35 °F 10 °F (2004)
Degree Days  
Heating Degree Days 23    
Moisture  
Dew Point 41 °F    
Average Humidity 91    
Maximum Humidity 97    
Minimum Humidity 85    
Precipitation  
Precipitation 0.00 in - - ()
Sea Level Pressure  
Sea Level Pressure 30.24 in    
Wind  
Wind Speed 6 mph (ENE)    
Max Wind Speed 13 mph    
Max Gust Speed 17 mph    
Visibility 10 miles    
Events Rain    
Averages and records for this station are not official NWS values.
T = Trace of Precipitation, MM = Missing Value Source: NWS Daily Summary

Daily Weather History Graph

Daily Weather History Graph

Search for Another Location

Airport or City:

Trip Planner

Search our weather history database for the weather conditions in past years. The results will help you decide how hot, cold, wet, or windy it might be!

Date:

Astronomy

Jan. 04, 2013 Rise Set
Actual Time 8:03 AM PST 4:31 PM PST
Civil Twilight 7:27 AM PST 5:07 PM PST
Nautical Twilight 6:47 AM PST 5:47 PM PST
Astronomical Twilight 6:09 AM PST 6:25 PM PST
Moon No Moon Rise 11:11 AM PST (1/4)
Length of Visible Light 9h 40m
Length of Day
8h 27m
Waning Gibbous, 54% of the Moon is Illuminated
Jan 4
Waning Gibbous
Jan 4
Last Quarter
Jan 11
New
Jan 18
First Quarter
Jan 26
Full

Hourly Weather History & Observations

Time (PST) Temp. Windchill Dew Point Humidity Pressure Visibility Wind Dir Wind Speed Gust Speed Precip Events Conditions
12:53 AM 41.0 °F 33.9 °F 37.0 °F 86% 30.13 in 10.0 mi East 12.7 mph 17.3 mph N/A   Overcast
1:53 AM 41.0 °F 34.7 °F 37.0 °F 86% 30.17 in 10.0 mi SE 10.4 mph - N/A   Overcast
2:53 AM 41.0 °F 35.8 °F 37.9 °F 89% 30.19 in 10.0 mi ESE 8.1 mph - N/A   Overcast
3:53 AM 42.1 °F 37.7 °F 37.9 °F 85% 30.20 in 10.0 mi ESE 6.9 mph - N/A   Overcast
5:53 AM 42.1 °F 37.7 °F 39.0 °F 89% 30.24 in 10.0 mi ESE 6.9 mph - N/A   Overcast
6:53 AM 42.1 °F 37.7 °F 39.9 °F 92% 30.25 in 10.0 mi East 6.9 mph - 0.00 in   Overcast
7:53 AM 42.1 °F 40.2 °F 39.9 °F 92% 30.26 in 10.0 mi ESE 3.5 mph - 0.00 in   Overcast
8:06 AM 42.8 °F 40.1 °F 39.2 °F 87% 30.26 in 10.0 mi ESE 4.6 mph - N/A   Overcast
8:53 AM 43.0 °F 40.3 °F 39.9 °F 89% 30.29 in 9.0 mi East 4.6 mph - 0.00 in Rain Light Rain
9:53 AM 43.0 °F 41.3 °F 41.0 °F 93% 30.30 in 10.0 mi NE 3.5 mph - 0.00 in   Overcast
10:53 AM 44.1 °F 42.5 °F 42.1 °F 93% 30.31 in 10.0 mi East 3.5 mph - N/A   Overcast
11:20 AM 44.6 °F - 42.8 °F 93% 30.30 in 10.0 mi Calm Calm - N/A   Overcast
11:53 AM 45.0 °F - 42.1 °F 90% 30.30 in 10.0 mi Calm Calm - N/A   Overcast
12:53 PM 45.0 °F 42.6 °F 42.1 °F 90% 30.29 in 9.0 mi East 4.6 mph - N/A   Overcast
1:53 PM 45.0 °F 42.6 °F 42.1 °F 90% 30.28 in 10.0 mi East 4.6 mph - N/A   Overcast
2:40 PM 44.6 °F 43.1 °F 42.8 °F 93% 30.27 in 10.0 mi East 3.5 mph - N/A   Overcast
2:53 PM 45.0 °F 43.5 °F 42.1 °F 90% 30.27 in 10.0 mi ENE 3.5 mph - N/A   Overcast
3:19 PM 44.6 °F 40.2 °F 42.8 °F 93% 30.27 in 10.0 mi East 8.1 mph - N/A   Overcast
3:53 PM 45.0 °F - 42.1 °F 90% 30.29 in 10.0 mi Calm Calm - N/A   Overcast
4:41 PM 44.6 °F - 42.8 °F 93% 30.27 in 10.0 mi Calm Calm - N/A   Overcast
4:49 PM 44.6 °F - 42.8 °F 93% 30.27 in 10.0 mi Calm Calm - N/A   Overcast
4:53 PM 44.1 °F 40.8 °F 42.1 °F 93% 30.26 in 10.0 mi NNE 5.8 mph - N/A   Overcast
5:11 PM 44.6 °F 42.2 °F 42.8 °F 93% 30.25 in 10.0 mi NNE 4.6 mph - N/A   Overcast
5:19 PM 44.6 °F 42.2 °F 42.8 °F 93% 30.25 in 10.0 mi NNE 4.6 mph - N/A   Overcast
5:53 PM 44.1 °F 42.5 °F 42.1 °F 93% 30.24 in 10.0 mi NNE 3.5 mph - N/A   Overcast
6:53 PM 44.1 °F 42.5 °F 41.0 °F 89% 30.24 in 10.0 mi NNE 3.5 mph - N/A   Overcast
7:53 PM 43.0 °F 40.3 °F 41.0 °F 93% 30.22 in 10.0 mi North 4.6 mph - N/A   Mostly Cloudy
8:02 PM 42.8 °F - 41.0 °F 93% 30.22 in 10.0 mi Calm Calm - N/A   Scattered Clouds
8:23 PM 42.8 °F - 39.2 °F 87% 30.21 in 10.0 mi Calm Calm - N/A   Mostly Cloudy
8:32 PM 42.8 °F - 39.2 °F 87% 30.21 in 10.0 mi Calm Calm - N/A   Scattered Clouds
8:53 PM 42.1 °F - 41.0 °F 96% 30.21 in 10.0 mi Calm Calm - N/A   Clear
9:53 PM 42.1 °F - 39.0 °F 89% 30.20 in 10.0 mi Calm Calm - N/A   Clear
10:53 PM 39.9 °F - 39.0 °F 97% 30.19 in 10.0 mi Calm Calm - N/A   Overcast
11:53 PM 41.0 °F 39.0 °F 39.0 °F 93% 30.18 in 10.0 mi North 3.5 mph - N/A   Mostly Cloudy